DW5490 Weather Reports


Display with metric or nautical units.
time (UTC)temp
F
wind
direction
speed
MPH
gust
MPH
rain 1hr
in
rain 24hr
in
rain mn
in
humidity
%
barometer
mb
20260507191540 63 296 7.0 12.0 0.00 0.00 0.00 35 1005.2
20260507190040 64 301 5.0 13.0 0.00 0.00 0.00 37 1005.2
20260507184515 63 302 6.0 12.0 0.00 0.00 0.00 38 1005.6
20260507183018 63 299 4.0 10.0 0.00 0.00 0.00 38 1005.7
20260507181521 63 271 6.0 14.0 0.00 0.00 0.00 40 1005.8
20260507180016 63 279 3.0 12.0 0.00 0.00 0.00 42 1005.9
20260507174517 62 289 8.0 16.0 0.00 0.00 0.00 42 1005.8
20260507173004 62 310 3.0 12.0 0.00 0.00 0.00 42 1005.9
20260507171606 61 323 4.0 10.0 0.00 0.00 0.00 44 1006.2
20260507170010 61 303 5.0 11.0 0.00 0.00 0.00 50 1006.2
20260507164600 60 322 5.0 11.0 0.00 0.00 0.00 54 1006.4
20260507163056 61 281 6.0 11.0 0.00 0.00 0.00 53 1006.4
20260507161536 61 321 1.0 9.0 0.00 0.00 0.00 60 1006.6
20260507160112 60 266 4.0 12.0 0.00 0.00 0.00 59 1006.7
20260507154609 59 241 4.0 7.0 0.00 0.00 0.00 64 1007.0
20260507153028 58 307 2.0 7.0 0.00 0.00 0.00 65 1007.1
20260507151540 57 5 4.0 8.0 0.00 0.00 0.00 66 1007.2
20260507150043 58 273 3.0 10.0 0.00 0.00 0.00 65 1007.3
20260507144540 58 311 1.0 7.0 0.00 0.00 0.00 66 1007.4
20260507143039 58 331 2.0 8.0 0.00 0.00 0.00 62 1007.6
20260507141515 56 292 3.0 7.0 0.00 0.00 0.00 71 1007.6
20260507140044 55 306 3.0 8.0 0.00 0.00 0.00 73 1007.8
20260507134518 54 49 0.0 5.0 0.00 0.00 0.00 83 1007.7
20260507133026 53 293 4.0 8.0 0.00 0.00 0.00 85 1007.7
20260507131608 52 310 1.0 8.0 0.00 0.00 0.00 92 1007.7
20260507130007 51 309 2.0 5.0 0.00 0.00 0.00 95 1007.6
20260507124553 50 318 2.0 5.0 0.00 0.00 0.00 96 1007.7
20260507123022 49 289 2.0 5.0 0.00 0.00 0.00 96 1008.2
20260507121559 48 311 2.0 5.0 0.00 0.00 0.00 97 1008.0
20260507120059 48 312 1.0 5.0 0.00 0.00 0.00 96 1007.6
20260507114501 48 313 1.0 3.0 0.00 0.00 0.00 96 1007.7
20260507113016 48 313 1.0 2.0 0.00 0.00 0.00 96 1007.8
20260507111524 48 313 0.0 2.0 0.00 0.00 0.00 96 1007.7
20260507110022 47 313 0.0 3.0 0.00 0.00 0.00 96 1007.3
20260507104535 47 313 0.0 2.0 0.00 0.00 0.00 95 1007.3
20260507103055 47 313 0.0 2.0 0.00 0.00 0.00 95 1007.5
20260507101557 47 313 1.0 7.0 0.00 0.00 0.00 95 1007.7
20260507100034 48 330 2.0 6.0 0.00 0.00 0.00 95 1007.4
20260507094512 48 298 0.0 5.0 0.00 0.00 0.00 95 1007.1
20260507093051 48 315 0.0 5.0 0.00 0.00 0.00 95 1007.3
20260507091538 49 303 2.0 5.0 0.00 0.00 0.00 95 1007.0
20260507090057 49 312 2.0 6.0 0.00 0.00 0.00 95 1006.7
20260507084547 50 317 1.0 5.0 0.00 0.00 0.00 94 1006.9
20260507083052 50 313 2.0 6.0 0.00 0.00 0.00 93 1007.0
20260507081541 51 320 1.0 5.0 0.00 0.00 0.00 93 1006.7
20260507080018 52 313 2.0 6.0 0.00 0.00 0.00 92 1006.8
20260507074611 54 302 4.0 8.0 0.00 0.00 0.00 90 1006.7
20260507073037 55 313 3.0 7.0 0.00 0.00 0.00 89 1005.7
20260507071531 55 300 2.0 5.0 0.00 0.00 0.00 89 1005.7
20260507070041 55 300 3.0 7.0 0.00 0.00 0.00 88 1005.6
20260507064527 56 304 3.0 5.0 0.00 0.00 0.00 90 1005.8
20260507063043 56 299 2.0 6.0 0.00 0.00 0.00 91 1005.8
20260507061611 56 298 3.0 7.0 0.00 0.00 0.00 92 1005.6
20260507060051 57 309 4.0 8.0 0.00 0.00 0.00 95 1006.0
20260507054637 58 296 2.0 6.0 0.00 0.00 0.00 97 1005.9
20260507053053 58 309 1.0 6.0 0.00 0.00 0.00 97 1006.0
20260507051543 58 252 1.0 5.0 0.00 0.00 0.00 98 1006.1
20260507050043 58 252 2.0 6.0 0.00 0.00 0.00 98 1006.1
20260507044538 58 269 1.0 7.0 0.00 0.00 0.00 98 1006.1
20260507043046 58 235 3.0 8.0 0.00 0.00 0.00 98 1005.8
20260507041601 58 241 3.0 7.0 0.00 0.00 0.00 98 1006.1
20260507040027 58 273 4.0 7.0 0.00 0.00 0.00 98 1006.1
20260507034524 57 216 4.0 13.0 0.00 0.00 0.00 98 1006.3
20260507033105 57 236 4.0 12.0 0.00 0.00 0.00 97 1006.2
20260507031609 57 232 5.0 10.0 0.00 0.00 0.00 98 1005.9
20260507030058 57 241 5.0 10.0 0.00 0.00 0.00 98 1005.8
20260507024601 57 220 6.0 14.0 0.00 0.00 0.00 97 1005.8
20260507023002 56 240 8.0 16.0 0.00 0.00 0.00 97 1005.8
20260507021549 56 258 5.0 13.0 0.00 0.00 0.00 97 1005.7
20260507020035 56 247 3.0 13.0 0.00 0.00 0.00 97 1005.8
20260507014555 56 198 8.0 17.0 0.00 0.00 0.00 97 1006.0
20260507013057 56 252 6.0 14.0 0.00 0.00 0.00 97 1006.3
20260507011554 56 253 6.0 14.0 0.00 0.00 0.00 97 1006.3
20260507010113 56 238 7.0 15.0 0.00 0.00 0.00 97 1006.4
20260507004551 56 210 8.0 19.0 0.00 0.00 0.00 97 1006.3
20260507003056 56 242 8.0 18.0 0.00 0.00 0.00 97 1006.3
20260507001557 56 255 6.0 15.0 0.00 0.00 0.00 97 1006.4
20260507000039 56 271 8.0 15.0 0.00 0.00 0.00 97 1006.2
20260506234529 56 200 6.0 16.0 0.00 0.00 0.00 97 1006.0
20260506233016 56 215 10.0 17.0 0.00 0.00 0.00 96 1006.1
20260506231525 56 199 7.0 13.0 0.00 0.00 0.00 96 1006.4
20260506230031 56 195 5.0 13.0 0.00 0.00 0.00 96 1006.3
20260506224544 57 225 5.0 14.0 0.00 0.00 0.00 96 1006.2
20260506223054 57 207 8.0 16.0 0.00 0.00 0.00 96 1006.4
20260506221524 57 198 7.0 18.0 0.00 0.00 0.00 95 1006.7
20260506220115 57 236 9.0 17.0 0.00 0.00 0.00 94 1006.7
20260506214604 58 215 7.0 16.0 0.00 0.00 0.00 94 1006.8
20260506213113 58 225 6.0 17.0 0.00 0.00 0.00 94 1006.9
20260506211554 58 173 7.0 18.0 0.00 0.00 0.00 94 1006.9
20260506210115 59 234 6.0 14.0 0.00 0.00 0.00 93 1007.0
20260506204504 59 223 9.0 20.0 0.00 0.00 0.00 92 1007.2
20260506203101 59 240 8.0 17.0 0.00 0.00 0.00 90 1007.0
20260506201511 60 205 7.0 16.0 0.00 0.00 0.00 89 1007.2
20260506200024 61 255 4.0 17.0 0.00 0.00 0.00 87 1007.2
20260506194522 62 228 7.0 15.0 0.00 0.00 0.00 84 1007.4
20260506193009 62 245 9.0 17.0 0.00 0.00 0.00 82 1007.5